FW2969 Weather Reports


time (UTC)temp
C
wind
direction
speed
KPH
gust
KPH
rain 1hr
cm
rain 24hr
cm
rain mn
cm
humidity
%
barometer
mb
20260904220030 20 101 3.2 6.4 0.00 0.00 0.00 54 1010.2
20260904214526 20 99 3.2 8.0 0.00 0.00 0.00 56 1010.2
20260904213031 20 105 3.2 8.0 0.00 0.00 0.00 57 1010.3
20260904211523 20 95 3.2 8.0 0.00 0.00 0.00 55 1010.3
20260904210022 20 81 1.6 8.0 0.00 0.00 0.00 55 1010.3
20260904204523 19 74 1.6 4.8 0.00 0.00 0.00 58 1010.4
20260904203026 18 119 1.6 4.8 0.00 0.00 0.00 62 1010.3
20260904201533 18 93 0.0 3.2 0.00 0.00 0.00 69 1010.4
20260904200034 18 92 0.0 3.2 0.00 0.00 0.00 75 1010.2
20260904194513 18 92 0.0 3.2 0.00 0.00 0.00 83 1010.1
20260904193013 19 108 0.0 6.4 0.00 0.00 0.00 89 1010.1
20260904191514 19 105 1.6 6.4 0.00 0.00 0.00 91 1010.1
20260904190012 19 103 0.0 3.2 0.00 0.00 0.00 93 1010.0
20260904184510 20 90 0.0 3.2 0.00 0.00 0.00 93 1010.0
20260904183008 20 95 0.0 1.6 0.00 0.00 0.00 93 1010.1
20260904181508 20 103 0.0 3.2 0.00 0.00 0.00 93 1010.0
20260904180007 20 104 0.0 1.6 0.00 0.00 0.00 92 1010.0
20260904174506 20 104 0.0 3.2 0.00 0.00 0.00 92 1009.8
20260904173005 20 302 0.0 1.6 0.00 0.00 0.00 92 1009.8
20260904171503 20 301 0.0 1.6 0.00 0.00 0.00 92 1009.6
20260904170001 20 301 0.0 0.0 0.00 0.00 0.00 91 1009.3
20260904164601 21 301 0.0 0.0 0.00 0.00 0.00 91 1009.1
20260904163059 21 301 0.0 1.6 0.00 0.00 0.00 90 1008.9
20260904161601 21 301 0.0 1.6 0.00 0.00 0.00 90 1008.7
20260904160059 21 301 0.0 1.6 0.00 0.00 0.00 89 1008.6
20260904154556 22 311 0.0 3.2 0.00 0.00 0.00 88 1008.5
20260904153110 22 311 0.0 3.2 0.00 0.00 0.00 88 1008.4
20260904151553 22 301 0.0 4.8 0.00 0.00 0.00 88 1008.4
20260904150054 22 264 0.0 4.8 0.00 0.00 0.00 86 1008.4
20260904144603 22 294 0.0 9.7 0.00 0.00 0.00 86 1008.3
20260904143112 23 290 1.6 9.7 0.00 0.00 0.00 84 1008.3
20260904141554 23 283 1.6 4.8 0.00 0.00 0.00 84 1008.4
20260904140054 22 255 3.2 16.1 0.00 0.00 0.00 85 1008.4
20260904134556 23 264 1.6 9.7 0.00 0.00 0.00 85 1008.4
20260904133103 23 309 3.2 11.3 0.00 0.00 0.00 84 1008.3
20260904131549 23 335 4.8 14.5 0.00 0.00 0.00 82 1008.2
20260904130055 23 267 3.2 9.7 0.00 0.00 0.00 81 1008.2
20260904124551 24 255 1.6 9.7 0.00 0.00 0.00 81 1008.1
20260904123052 23 333 6.4 16.1 0.00 0.00 0.00 82 1008.2
20260904121548 23 280 6.4 16.1 0.00 0.00 0.00 82 1008.2
20260904120058 23 348 4.8 14.5 0.00 0.00 0.00 81 1008.3
20260904114549 23 322 3.2 14.5 0.00 0.00 0.00 81 1008.2
20260904113046 24 323 4.8 17.7 0.00 0.00 0.00 79 1008.4
20260904111545 23 19 4.8 11.3 0.00 0.00 0.00 80 1008.4
20260904110045 23 311 4.8 16.1 0.00 0.00 0.00 81 1008.4
20260904104545 23 329 9.7 17.7 0.00 0.00 0.00 80 1008.6
20260904103044 23 245 1.6 16.1 0.00 0.00 0.00 81 1008.5
20260904101542 23 255 6.4 14.5 0.00 0.00 0.00 80 1008.5
20260904100041 23 234 4.8 19.3 0.00 0.00 0.00 79 1008.5
20260904094541 23 255 3.2 19.3 0.00 0.00 0.00 79 1008.6
20260904093040 23 307 8.0 20.9 0.00 0.00 0.00 78 1008.5
20260904091539 23 255 4.8 20.9 0.00 0.00 0.00 77 1008.6
20260904090038 24 323 4.8 14.5 0.00 0.00 0.00 75 1008.6
20260904084545 25 255 3.2 16.1 0.00 0.00 0.00 71 1008.5
20260904083040 25 275 3.2 12.9 0.00 0.00 0.00 68 1008.5
20260904081533 24 272 3.2 9.7 0.00 0.00 0.00 70 1008.6
20260904080045 23 289 6.4 12.9 0.00 0.00 0.00 68 1008.6
20260904074531 23 347 1.6 9.7 0.00 0.00 0.00 70 1008.7
20260904073029 23 304 3.2 8.0 0.00 0.00 0.00 70 1008.8
20260904071531 23 285 0.0 6.4 0.00 0.00 0.00 73 1008.8
20260904070035 22 355 1.6 8.0 0.00 0.00 0.00 76 1008.7
20260904064524 22 305 3.2 9.7 0.00 0.00 0.00 75 1008.6
20260904063021 22 211 0.0 8.0 0.00 0.00 0.00 75 1008.5
20260904061519 22 202 1.6 8.0 0.00 0.00 0.00 76 1008.4
20260904060017 21 207 0.0 0.0 0.00 0.00 0.00 80 1008.3
20260904054527 21 207 0.0 3.2 0.00 0.00 0.00 83 1008.2
20260904053018 20 207 0.0 4.8 0.00 0.00 0.00 84 1008.2
20260904051513 20 188 0.0 6.4 0.00 0.00 0.00 85 1008.1
20260904050011 20 166 1.6 4.8 0.00 0.00 0.00 83 1008.2
20260904044512 20 157 0.0 3.2 0.00 0.00 0.00 80 1008.2
20260904043009 19 128 0.0 3.2 0.00 0.00 0.00 77 1008.2
20260904041508 19 97 0.0 0.0 0.00 0.00 0.00 70 1008.2
20260904040010 19 97 0.0 0.0 0.00 0.00 0.00 67 1008.0
20260904034505 19 97 0.0 0.0 0.00 0.00 0.00 68 1007.9
20260904033007 19 97 0.0 1.6 0.00 0.00 0.00 69 1007.7
20260904031503 18 97 0.0 1.6 0.00 0.00 0.00 71 1007.6
20260904030001 18 97 0.0 1.6 0.00 0.00 0.00 72 1007.4
20260904024600 18 97 0.0 1.6 0.00 0.00 0.00 74 1007.5
20260904023057 18 97 0.0 1.6 0.00 0.00 0.00 76 1007.3
20260904021606 18 97 0.0 1.6 0.00 0.00 0.00 78 1007.3
20260904020056 18 97 0.0 1.6 0.00 0.00 0.00 83 1007.2
20260904014604 18 97 0.0 3.2 0.00 0.00 0.00 87 1007.2
20260904013113 18 99 0.0 1.6 0.00 0.00 0.00 89 1007.2
20260904011614 18 99 0.0 1.6 0.00 0.00 0.00 91 1007.2
20260904010045 18 100 0.0 4.8 0.00 0.00 0.00 92 1007.3
20260904004544 18 107 1.6 4.8 0.00 0.00 0.00 93 1007.4
20260904003044 18 101 1.6 4.8 0.00 0.00 0.00 92 1007.5
20260904001541 19 116 0.0 3.2 0.00 0.00 0.00 92 1007.5
20260904000040 19 97 1.6 4.8 0.00 0.00 0.00 92 1007.5
20260903234538 19 154 0.0 1.6 0.00 0.00 0.00 92 1007.5
20260903233038 20 157 0.0 3.2 0.00 0.00 0.00 92 1007.4
20260903231544 20 161 0.0 1.6 0.00 0.00 0.00 92 1007.5
20260903230036 20 161 0.0 3.2 0.00 0.00 0.00 92 1007.5
20260903224538 20 161 0.0 1.6 0.00 0.00 0.00 92 1007.5
20260903223033 20 161 0.0 1.6 0.00 0.00 0.00 93 1007.5
20260903221531 20 162 0.0 3.2 0.00 0.00 0.00 94 1007.4